Regional Weather Roundup
Issued by NWS State College, PA

Home | Current Version | Previous Version | Graphics & Text | Print | Product List | Glossary Off
Versions: 1 2 3 4 5 6 7 8 9 10 11 12 13 14 15 16 17 18 19 20 21 22 23 24 25 26 27 28 29 30 31 32 33 34 35 36 37 38 39 40 41 42 43 44 45 46 47 48 49 50

000
ASUS41 KCTP 230503
RWRCTP

REGIONAL WEATHER ROUNDUP
NATIONAL WEATHER SERVICE STATE COLLEGE PA
100 AM EDT WED APR 23 2014

Note: "fair" indicates few or no clouds below 12,000 feet with no
significant weather and/or obstructions to visibility.

* = STATION THAT DOES NOT REPORT PRECIPITATION /E.G. RAIN...SNOW...ETC/
    THUNDER OR FOG.

PAZ002>004-007>009-013>016-020>023-029>032-230600-
WESTERN PENNSYLVANIA

CITY           SKY/WX    TMP DP  RH WIND       PRES   REMARKS
ERIE           CLOUDY    38  35  89 W13       29.84S
MEADVILLE      LGT RAIN  36  33  89 NW8       29.82R
FRANKLIN*      CLOUDY    36  30  80 NW8G16    29.83R
NEW CASTLE     RAIN      39  36  89 NW12G18   29.86S FOG
BEAVER COUNTY  NOT AVBL
BUTLER*        CLOUDY    39  34  81 NW7       29.85R
PITTSBURGH INT CLOUDY    46  35  65 NW22      29.82S
PITTSBURGH     CLOUDY    47  34  60 NW13G25   29.80S
INDIANA*       CLOUDY    43  39  87 NW13G22   29.79R
LATROBE        CLOUDY    46  36  66 W7        29.81S
WASHINGTON CO* CLOUDY    46  32  57 NW13G18   29.85R
$$

PAZ004>006-010>012-017>019-024>028-033>037-041-042-045-046-049>053-230600-
CENTRAL PENNSYLVANIA

CITY           SKY/WX    TMP DP  RH WIND       PRES   REMARKS
BRADFORD       LGT SNOW  35  31  85 W12G21    29.71R FOG
DUBOIS         CLOUDY    39  35  86 W16G22    29.74S
CLEARFIELD     LGT RAIN  41  36  82 W12G20    29.73F
JOHNSTOWN      CLOUDY    40  32  73 W15       29.74R
ALTOONA        PTCLDY    44  34  67 NW12      29.74S
STATE COLLEGE  CLOUDY    46  30  54 NW9       29.71F
WILLIAMSPORT   PTCLDY    47  30  51 W14       29.66S
SELINSGROVE    PTCLDY    48  33  56 W9        29.68S
FT INDIANTOWN  NOT AVBL
CAPITAL CITY   CLEAR     49  34  56 W15G23    29.69R
HARRISBURG     PTCLDY    50  34  54 NW20      29.66S
YORK           CLEAR     49  35  58 W12G21    29.69R
$$

PAZ038>040-043-044-047-048-054-055-060>062-067>071-230600-
EASTERN PENNSYLVANIA

CITY           SKY/WX    TMP DP  RH WIND       PRES   REMARKS
SCRANTON       CLOUDY    49  41  74 NW18      29.60R
MOUNT POCONO   PTCLDY    48  41  76 NW12      29.55F
ALLENTOWN      CLEAR     54  41  61 W10G17    29.57S
QUAKERTOWN*    PTCLDY    54  45  71 W8        29.59S
READING        CLEAR     52  36  54 W13G29    29.62R
LANCASTER      CLEAR     48  37  65 W10       29.65R
COATESVILLE    CLEAR     50  37  62 NW17G25   29.64R
POTTSTOWN      PTCLDY    53  44  71 W7        29.61R
BLUE BELL      MOCLDY    55  46  71 W8        29.59R
DOYLESTOWN     PTCLDY    54  47  77 W9        29.57R
WILLOW GROVE   NOT AVBL
NORTH PHILA    MOCLDY    58  46  64 W15       29.59R
PHILADELPHIA   CLOUDY    60  40  47 W14G24    29.60S
$$



USA.gov is the U.S. government's official web portal to all federal, state and local government web resources and services.